Year,Month,Day,Hour,Minute,Value (Times are PST for temperature in C)
2013,07,01,00,00,20.20
2013,07,01,00,01,20.10
2013,07,01,00,02,20.10
2013,07,01,00,03,20.10
2013,07,01,00,04,20.20
2013,07,01,00,05,20.10
2013,07,01,00,06,20.10
2013,07,01,00,07,20.10
2013,07,01,00,08,20.10
2013,07,01,00,09,20.10
2013,07,01,00,10,20.10
2013,07,01,00,11,20.10
2013,07,01,00,12,20.10
2013,07,01,00,13,20.10
2013,07,01,00,14,20.10
2013,07,01,00,15,20.00
2013,07,01,00,16,20.00
2013,07,01,00,17,20.00
2013,07,01,00,18,20.00
2013,07,01,00,19,19.90
2013,07,01,00,20,19.90
2013,07,01,00,21,19.90
2013,07,01,00,22,19.90
2013,07,01,00,23,19.90
2013,07,01,00,24,19.80
2013,07,01,00,25,19.80
2013,07,01,00,26,19.80
2013,07,01,00,27,19.80
2013,07,01,00,28,19.80
2013,07,01,00,29,19.80
2013,07,01,00,30,19.80
2013,07,01,00,31,19.70
2013,07,01,00,32,19.70
2013,07,01,00,33,19.70
2013,07,01,00,34,19.70
2013,07,01,00,35,19.70
2013,07,01,00,36,19.70
2013,07,01,00,37,19.70
2013,07,01,00,38,19.70
2013,07,01,00,39,19.70
2013,07,01,00,40,19.70
2013,07,01,00,41,19.70
2013,07,01,00,42,19.70
2013,07,01,00,43,19.70
2013,07,01,00,44,19.70
2013,07,01,00,45,19.70
2013,07,01,00,46,19.70
2013,07,01,00,47,19.70
2013,07,01,00,48,19.70
2013,07,01,00,49,19.70
2013,07,01,00,50,19.70
2013,07,01,00,51,19.70
2013,07,01,00,52,19.70
2013,07,01,00,53,19.70
2013,07,01,00,54,19.70
2013,07,01,00,55,19.70
2013,07,01,00,56,19.70
2013,07,01,00,57,19.70
2013,07,01,00,58,19.70
2013,07,01,00,59,19.70
2013,07,01,01,00,19.70
2013,07,01,01,01,19.70
2013,07,01,01,02,19.70
2013,07,01,01,03,19.70
2013,07,01,01,04,19.70
2013,07,01,01,05,19.70
2013,07,01,01,06,19.70
2013,07,01,01,07,19.70
2013,07,01,01,08,19.70
2013,07,01,01,09,19.70
2013,07,01,01,10,19.70
2013,07,01,01,11,19.60
2013,07,01,01,12,19.60
2013,07,01,01,13,19.60
2013,07,01,01,14,19.60
2013,07,01,01,15,19.60
2013,07,01,01,16,19.60
2013,07,01,01,17,19.60
2013,07,01,01,18,19.60
2013,07,01,01,19,19.60
2013,07,01,01,20,19.50
2013,07,01,01,21,19.50
2013,07,01,01,22,19.50
2013,07,01,01,23,19.50
2013,07,01,01,24,19.50
2013,07,01,01,25,19.50
2013,07,01,01,26,19.40
2013,07,01,01,27,19.40
2013,07,01,01,28,19.40
2013,07,01,01,29,19.40
2013,07,01,01,30,19.40
2013,07,01,01,31,19.40
2013,07,01,01,32,19.40
2013,07,01,01,33,19.40
2013,07,01,01,34,19.40
2013,07,01,01,35,19.30
2013,07,01,01,36,19.30
2013,07,01,01,37,19.30
2013,07,01,01,38,19.30
2013,07,01,01,39,19.30
2013,07,01,01,40,19.30
2013,07,01,01,41,19.30
2013,07,01,01,42,19.30
2013,07,01,01,43,19.30
2013,07,01,01,44,19.30
2013,07,01,01,45,19.20
2013,07,01,01,46,19.20
2013,07,01,01,47,19.20
2013,07,01,01,48,19.20
2013,07,01,01,49,19.20
2013,07,01,01,50,19.20
2013,07,01,01,51,19.20
2013,07,01,01,52,19.20
2013,07,01,01,53,19.20
2013,07,01,01,54,19.20
2013,07,01,01,55,19.20
2013,07,01,01,56,19.10
2013,07,01,01,57,19.10
2013,07,01,01,58,19.10
2013,07,01,01,59,19.10
2013,07,01,02,00,19.10
2013,07,01,02,01,19.10
2013,07,01,02,02,19.10
2013,07,01,02,03,19.00
2013,07,01,02,04,19.00
2013,07,01,02,05,19.00
2013,07,01,02,06,19.00
2013,07,01,02,07,19.00
2013,07,01,02,08,19.00
2013,07,01,02,09,19.00
2013,07,01,02,10,19.00
2013,07,01,02,11,18.90
2013,07,01,02,12,18.90
2013,07,01,02,13,18.90
2013,07,01,02,14,18.90
2013,07,01,02,15,18.90
2013,07,01,02,16,18.90
2013,07,01,02,17,18.90
2013,07,01,02,18,18.80
2013,07,01,02,19,18.80
2013,07,01,02,20,18.80
2013,07,01,02,21,18.80
2013,07,01,02,22,18.80
2013,07,01,02,23,18.80
2013,07,01,02,24,18.80
2013,07,01,02,25,18.80
2013,07,01,02,26,18.70
2013,07,01,02,27,18.70
2013,07,01,02,28,18.70
2013,07,01,02,29,18.70
2013,07,01,02,30,18.70
2013,07,01,02,31,18.70
2013,07,01,02,32,18.70
2013,07,01,02,33,18.70
2013,07,01,02,34,18.70
2013,07,01,02,35,18.70
2013,07,01,02,36,18.60
2013,07,01,02,37,18.60
2013,07,01,02,38,18.60
2013,07,01,02,39,18.60
2013,07,01,02,40,18.60
2013,07,01,02,41,18.60
2013,07,01,02,42,18.50
2013,07,01,02,43,18.50
2013,07,01,02,44,18.50
2013,07,01,02,45,18.50
2013,07,01,02,46,18.40
2013,07,01,02,47,18.40
2013,07,01,02,48,18.40
2013,07,01,02,49,18.40
2013,07,01,02,50,18.40
2013,07,01,02,51,18.30
2013,07,01,02,52,18.30
2013,07,01,02,53,18.30
2013,07,01,02,54,18.30
2013,07,01,02,55,18.30
2013,07,01,02,56,18.30
2013,07,01,02,57,18.30
2013,07,01,02,58,18.30
2013,07,01,02,59,18.30
2013,07,01,03,00,18.30
2013,07,01,03,01,18.30
2013,07,01,03,02,18.30
2013,07,01,03,03,18.30
2013,07,01,03,04,18.30
2013,07,01,03,05,18.30
2013,07,01,03,06,18.30
2013,07,01,03,07,18.30
2013,07,01,03,08,18.20
2013,07,01,03,09,18.20
2013,07,01,03,10,18.20
2013,07,01,03,11,18.20
2013,07,01,03,12,18.20
2013,07,01,03,13,18.20
2013,07,01,03,14,18.20
2013,07,01,03,15,18.10
2013,07,01,03,16,18.10
2013,07,01,03,17,18.10
2013,07,01,03,18,18.10
2013,07,01,03,19,18.10
2013,07,01,03,20,18.10
2013,07,01,03,21,18.10
2013,07,01,03,22,18.10
2013,07,01,03,23,18.10
2013,07,01,03,24,18.10
2013,07,01,03,25,18.10
2013,07,01,03,26,18.10
2013,07,01,03,27,18.10
2013,07,01,03,28,18.00
2013,07,01,03,29,18.00
2013,07,01,03,30,18.00
2013,07,01,03,31,18.00
2013,07,01,03,32,18.00
2013,07,01,03,33,18.00
2013,07,01,03,34,18.00
2013,07,01,03,35,18.00
2013,07,01,03,36,18.00
2013,07,01,03,37,18.00
2013,07,01,03,38,18.00
2013,07,01,03,39,18.00
2013,07,01,03,40,18.00
2013,07,01,03,41,17.90
2013,07,01,03,42,17.90
2013,07,01,03,43,17.90
2013,07,01,03,44,17.90
2013,07,01,03,45,17.90
2013,07,01,03,46,17.90
2013,07,01,03,47,17.90
2013,07,01,03,48,17.90
2013,07,01,03,49,17.80
2013,07,01,03,50,17.80
2013,07,01,03,51,17.80
2013,07,01,03,52,17.80
2013,07,01,03,53,17.80
2013,07,01,03,54,17.80
2013,07,01,03,55,17.80
2013,07,01,03,56,17.80
2013,07,01,03,57,17.80
2013,07,01,03,58,17.80
2013,07,01,03,59,17.80
2013,07,01,04,00,17.70
2013,07,01,04,01,17.70
2013,07,01,04,02,17.70
2013,07,01,04,03,17.70
2013,07,01,04,04,17.70
2013,07,01,04,05,17.70
2013,07,01,04,06,17.70
2013,07,01,04,07,17.70
2013,07,01,04,08,17.70
2013,07,01,04,09,17.70
2013,07,01,04,10,17.60
2013,07,01,04,11,17.60
2013,07,01,04,12,17.60
2013,07,01,04,13,17.60
2013,07,01,04,14,17.60
2013,07,01,04,15,17.60
2013,07,01,04,16,17.60
2013,07,01,04,17,17.60
2013,07,01,04,18,17.60
2013,07,01,04,19,17.60
2013,07,01,04,20,17.60
2013,07,01,04,21,17.60
2013,07,01,04,22,17.60
2013,07,01,04,23,17.60
2013,07,01,04,24,17.60
2013,07,01,04,25,17.60
2013,07,01,04,26,17.50
2013,07,01,04,27,17.50
2013,07,01,04,28,17.50
2013,07,01,04,29,17.50
2013,07,01,04,30,17.50
2013,07,01,04,31,17.50
2013,07,01,04,32,17.50
2013,07,01,04,33,17.50
2013,07,01,04,34,17.50
2013,07,01,04,35,17.50
2013,07,01,04,36,17.50
2013,07,01,04,37,17.40
2013,07,01,04,38,17.40
2013,07,01,04,39,17.40
2013,07,01,04,40,17.40
2013,07,01,04,41,17.40
2013,07,01,04,42,17.40
2013,07,01,04,43,17.40
2013,07,01,04,44,17.40
2013,07,01,04,45,17.40
2013,07,01,04,46,17.40
2013,07,01,04,47,17.40
2013,07,01,04,48,17.40
2013,07,01,04,49,17.40
2013,07,01,04,50,17.40
2013,07,01,04,51,17.40
2013,07,01,04,52,17.40
2013,07,01,04,53,17.40
2013,07,01,04,54,17.40
2013,07,01,04,55,17.30
2013,07,01,04,56,17.30
2013,07,01,04,57,17.30
2013,07,01,04,58,17.30
2013,07,01,04,59,17.30
2013,07,01,05,00,17.30
2013,07,01,05,01,17.30
2013,07,01,05,02,17.30
2013,07,01,05,03,17.30
2013,07,01,05,04,17.30
2013,07,01,05,05,17.30
2013,07,01,05,06,17.30
2013,07,01,05,07,17.30
2013,07,01,05,08,17.30
2013,07,01,05,09,17.30
2013,07,01,05,10,17.20
2013,07,01,05,11,17.30
2013,07,01,05,12,17.30
2013,07,01,05,13,17.20
2013,07,01,05,14,17.20
2013,07,01,05,15,17.20
2013,07,01,05,16,17.20
2013,07,01,05,17,17.20
2013,07,01,05,18,17.20
2013,07,01,05,19,17.20
2013,07,01,05,20,17.20
2013,07,01,05,21,17.20
2013,07,01,05,22,17.20
2013,07,01,05,23,17.20
2013,07,01,05,24,17.20
2013,07,01,05,25,17.20
2013,07,01,05,26,17.20
2013,07,01,05,27,17.20
2013,07,01,05,28,17.20
2013,07,01,05,29,17.20
2013,07,01,05,30,17.20
2013,07,01,05,31,17.20
2013,07,01,05,32,17.20
2013,07,01,05,33,17.20
2013,07,01,05,34,17.20
2013,07,01,05,35,17.20
2013,07,01,05,36,17.20
2013,07,01,05,37,17.20
2013,07,01,05,38,17.20
2013,07,01,05,39,17.20
2013,07,01,05,40,17.30
2013,07,01,05,41,17.30
2013,07,01,05,42,17.30
2013,07,01,05,43,17.30
2013,07,01,05,44,17.20
2013,07,01,05,45,17.30
2013,07,01,05,46,17.30
2013,07,01,05,47,17.30
2013,07,01,05,48,17.30
2013,07,01,05,49,17.30
2013,07,01,05,50,17.30
2013,07,01,05,51,17.30
2013,07,01,05,52,17.30
2013,07,01,05,53,17.30
2013,07,01,05,54,17.30
2013,07,01,05,55,17.30
2013,07,01,05,56,17.30
2013,07,01,05,57,17.30
2013,07,01,05,58,17.30
2013,07,01,05,59,17.40
2013,07,01,06,00,17.40
2013,07,01,06,01,17.40
2013,07,01,06,02,17.40
2013,07,01,06,03,17.40
2013,07,01,06,04,17.40
2013,07,01,06,05,17.40
2013,07,01,06,06,17.40
2013,07,01,06,07,17.50
2013,07,01,06,08,17.50
2013,07,01,06,09,17.50
2013,07,01,06,10,17.40
2013,07,01,06,11,17.40
2013,07,01,06,12,17.40
2013,07,01,06,13,17.40
2013,07,01,06,14,17.40
2013,07,01,06,15,17.40
2013,07,01,06,16,17.40
2013,07,01,06,17,17.50
2013,07,01,06,18,17.50
2013,07,01,06,19,17.50
2013,07,01,06,20,17.50
2013,07,01,06,21,17.50
2013,07,01,06,22,17.50
2013,07,01,06,23,17.60
2013,07,01,06,24,17.60
2013,07,01,06,25,17.60
2013,07,01,06,26,17.60
2013,07,01,06,27,17.60
2013,07,01,06,28,17.60
2013,07,01,06,29,17.60
2013,07,01,06,30,17.60
2013,07,01,06,31,17.60
2013,07,01,06,32,17.70
2013,07,01,06,33,17.70
2013,07,01,06,34,17.70
2013,07,01,06,35,17.70
2013,07,01,06,36,17.80
2013,07,01,06,37,17.80
2013,07,01,06,38,17.80
2013,07,01,06,39,17.90
2013,07,01,06,40,17.90
2013,07,01,06,41,18.00
2013,07,01,06,42,18.10
2013,07,01,06,43,18.20
2013,07,01,06,44,18.30
2013,07,01,06,45,18.30
2013,07,01,06,46,18.40
2013,07,01,06,47,18.50
2013,07,01,06,48,18.50
2013,07,01,06,49,18.60
2013,07,01,06,50,18.70
2013,07,01,06,51,18.80
2013,07,01,06,52,18.90
2013,07,01,06,53,19.00
2013,07,01,06,54,19.00
2013,07,01,06,55,19.10
2013,07,01,06,56,19.20
2013,07,01,06,57,19.20
2013,07,01,06,58,19.30
2013,07,01,06,59,19.30
2013,07,01,07,00,19.30
2013,07,01,07,01,19.30
2013,07,01,07,02,19.30
2013,07,01,07,03,19.40
2013,07,01,07,04,19.40
2013,07,01,07,05,19.40
2013,07,01,07,06,19.40
2013,07,01,07,07,19.50
2013,07,01,07,08,19.50
2013,07,01,07,09,19.60
2013,07,01,07,10,19.60
2013,07,01,07,11,19.70
2013,07,01,07,12,19.70
2013,07,01,07,13,19.80
2013,07,01,07,14,19.90
2013,07,01,07,15,20.00
2013,07,01,07,16,20.10
2013,07,01,07,17,20.20
2013,07,01,07,18,20.30
2013,07,01,07,19,20.50
2013,07,01,07,20,20.60
2013,07,01,07,21,20.70
2013,07,01,07,22,20.80
2013,07,01,07,23,20.90
2013,07,01,07,24,21.00
2013,07,01,07,25,21.10
2013,07,01,07,26,21.20
2013,07,01,07,27,21.30
2013,07,01,07,28,21.40
2013,07,01,07,29,21.40
2013,07,01,07,30,21.50
2013,07,01,07,31,21.60
2013,07,01,07,32,21.60
2013,07,01,07,33,21.70
2013,07,01,07,34,21.80
2013,07,01,07,35,21.90
2013,07,01,07,36,22.00
2013,07,01,07,37,22.10
2013,07,01,07,38,22.20
2013,07,01,07,39,22.30
2013,07,01,07,40,22.40
2013,07,01,07,41,22.40
2013,07,01,07,42,22.50
2013,07,01,07,43,22.50
2013,07,01,07,44,22.60
2013,07,01,07,45,22.60
2013,07,01,07,46,22.70
2013,07,01,07,47,22.70
2013,07,01,07,48,22.70
2013,07,01,07,49,22.80
2013,07,01,07,50,22.80
2013,07,01,07,51,22.80
2013,07,01,07,52,22.80
2013,07,01,07,53,22.80
2013,07,01,07,54,22.80
2013,07,01,07,55,22.80
2013,07,01,07,56,22.90
2013,07,01,07,57,22.90
2013,07,01,07,58,23.00
2013,07,01,07,59,23.10
2013,07,01,08,00,23.10
2013,07,01,08,01,23.20
2013,07,01,08,02,23.30
2013,07,01,08,03,23.30
2013,07,01,08,04,23.40
2013,07,01,08,05,23.40
2013,07,01,08,06,23.40
2013,07,01,08,07,23.40
2013,07,01,08,08,23.40
2013,07,01,08,09,23.50
2013,07,01,08,10,23.50
2013,07,01,08,11,23.60
2013,07,01,08,12,23.60
2013,07,01,08,13,23.60
2013,07,01,08,14,23.60
2013,07,01,08,15,23.60
2013,07,01,08,16,23.50
2013,07,01,08,17,23.50
2013,07,01,08,18,23.50
2013,07,01,08,19,23.60
2013,07,01,08,20,23.60
2013,07,01,08,21,23.60
2013,07,01,08,22,23.60
2013,07,01,08,23,23.60
2013,07,01,08,24,23.70
2013,07,01,08,25,23.80
2013,07,01,08,26,23.90
2013,07,01,08,27,24.00
2013,07,01,08,28,24.10
2013,07,01,08,29,24.20
2013,07,01,08,30,24.30
2013,07,01,08,31,24.30
2013,07,01,08,32,24.40
2013,07,01,08,33,24.40
2013,07,01,08,34,24.50
2013,07,01,08,35,24.50
2013,07,01,08,36,24.50
2013,07,01,08,37,24.60
2013,07,01,08,38,24.60
2013,07,01,08,39,24.60
2013,07,01,08,40,24.60
2013,07,01,08,41,24.70
2013,07,01,08,42,24.70
2013,07,01,08,43,24.70
2013,07,01,08,44,24.80
2013,07,01,08,45,24.80
2013,07,01,08,46,24.80
2013,07,01,08,47,24.90
2013,07,01,08,48,25.00
2013,07,01,08,49,25.00
2013,07,01,08,50,25.00
2013,07,01,08,51,25.00
2013,07,01,08,52,24.90
2013,07,01,08,53,24.90
2013,07,01,08,54,24.90
2013,07,01,08,55,24.80
2013,07,01,08,56,24.80
2013,07,01,08,57,24.80
2013,07,01,08,58,24.80
2013,07,01,08,59,24.80
2013,07,01,09,00,24.80
2013,07,01,09,01,24.90
2013,07,01,09,02,24.90
2013,07,01,09,03,25.00
2013,07,01,09,04,25.10
2013,07,01,09,05,25.10
2013,07,01,09,06,25.20
2013,07,01,09,07,25.20
2013,07,01,09,08,25.20
2013,07,01,09,09,25.20
2013,07,01,09,10,25.30
2013,07,01,09,11,25.40
2013,07,01,09,12,25.50
2013,07,01,09,13,25.60
2013,07,01,09,14,25.60
2013,07,01,09,15,25.70
2013,07,01,09,16,25.80
2013,07,01,09,17,25.90
2013,07,01,09,18,25.90
2013,07,01,09,19,25.90
2013,07,01,09,20,25.80
2013,07,01,09,21,25.70
2013,07,01,09,22,25.60
2013,07,01,09,23,25.40
2013,07,01,09,24,25.30
2013,07,01,09,25,25.30
2013,07,01,09,26,25.30
2013,07,01,09,27,25.30
2013,07,01,09,28,25.30
2013,07,01,09,29,25.40
2013,07,01,09,30,25.30
2013,07,01,09,31,25.30
2013,07,01,09,32,25.20
2013,07,01,09,33,25.10
2013,07,01,09,34,25.10
2013,07,01,09,35,25.00
2013,07,01,09,36,25.10
2013,07,01,09,37,25.10
2013,07,01,09,38,25.10
2013,07,01,09,39,25.20
2013,07,01,09,40,25.30
2013,07,01,09,41,25.40
2013,07,01,09,42,25.50
2013,07,01,09,43,25.70
2013,07,01,09,44,25.90
2013,07,01,09,45,26.00
2013,07,01,09,46,26.20
2013,07,01,09,47,26.30
2013,07,01,09,48,26.30
2013,07,01,09,49,26.30
2013,07,01,09,50,26.40
2013,07,01,09,51,26.40
2013,07,01,09,52,26.40
2013,07,01,09,53,26.40
2013,07,01,09,54,26.40
2013,07,01,09,55,26.40
2013,07,01,09,56,26.30
2013,07,01,09,57,26.30
2013,07,01,09,58,26.30
2013,07,01,09,59,26.20
2013,07,01,10,00,26.20
2013,07,01,10,01,26.20
2013,07,01,10,02,26.10
2013,07,01,10,03,26.10
2013,07,01,10,04,26.10
2013,07,01,10,05,26.00
2013,07,01,10,06,26.00
2013,07,01,10,07,26.00
2013,07,01,10,08,26.10
2013,07,01,10,09,26.20
2013,07,01,10,10,26.10
2013,07,01,10,11,26.10
2013,07,01,10,12,26.10
2013,07,01,10,13,26.10
2013,07,01,10,14,26.20
2013,07,01,10,15,26.30
2013,07,01,10,16,26.30
2013,07,01,10,17,26.40
2013,07,01,10,18,26.50
2013,07,01,10,19,26.60
2013,07,01,10,20,26.70
2013,07,01,10,21,26.80
2013,07,01,10,22,26.80
2013,07,01,10,23,26.90
2013,07,01,10,24,27.00
2013,07,01,10,25,27.10
2013,07,01,10,26,27.10
2013,07,01,10,27,27.20
2013,07,01,10,28,27.30
2013,07,01,10,29,27.30
2013,07,01,10,30,27.40
2013,07,01,10,31,27.40
2013,07,01,10,32,27.50
2013,07,01,10,33,27.60
2013,07,01,10,34,27.60
2013,07,01,10,35,27.60
2013,07,01,10,36,27.60
2013,07,01,10,37,27.50
2013,07,01,10,38,27.40
2013,07,01,10,39,27.40
2013,07,01,10,40,27.30
2013,07,01,10,41,27.30
2013,07,01,10,42,27.20
2013,07,01,10,43,27.20
2013,07,01,10,44,27.10
2013,07,01,10,45,27.00
2013,07,01,10,46,26.90
2013,07,01,10,47,26.90
2013,07,01,10,48,26.90
2013,07,01,10,49,26.90
2013,07,01,10,50,26.90
2013,07,01,10,51,26.80
2013,07,01,10,52,26.80
2013,07,01,10,53,26.60
2013,07,01,10,54,26.60
2013,07,01,10,55,26.60
2013,07,01,10,56,26.60
2013,07,01,10,57,26.50
2013,07,01,10,58,26.40
2013,07,01,10,59,26.40
2013,07,01,11,00,26.40
2013,07,01,11,01,26.40
2013,07,01,11,02,26.40
2013,07,01,11,03,26.50
2013,07,01,11,04,26.60
2013,07,01,11,05,26.60
2013,07,01,11,06,26.60
2013,07,01,11,07,26.60
2013,07,01,11,08,26.60
2013,07,01,11,09,26.60
2013,07,01,11,10,26.70
2013,07,01,11,11,26.60
2013,07,01,11,12,26.60
2013,07,01,11,13,26.60
2013,07,01,11,14,26.60
2013,07,01,11,15,26.60
2013,07,01,11,16,26.60
2013,07,01,11,17,26.60
2013,07,01,11,18,26.70
2013,07,01,11,19,26.70
2013,07,01,11,20,26.80
2013,07,01,11,21,26.90
2013,07,01,11,22,27.00
2013,07,01,11,23,27.10
2013,07,01,11,24,27.10
2013,07,01,11,25,27.20
2013,07,01,11,26,27.20
2013,07,01,11,27,27.30
2013,07,01,11,28,27.30
2013,07,01,11,29,27.30
2013,07,01,11,30,27.40
2013,07,01,11,31,27.50
2013,07,01,11,32,27.50
2013,07,01,11,33,27.50
2013,07,01,11,34,27.50
2013,07,01,11,35,27.50
2013,07,01,11,36,27.40
2013,07,01,11,37,27.40
2013,07,01,11,38,27.40
2013,07,01,11,39,27.50
2013,07,01,11,40,27.50
2013,07,01,11,41,27.60
2013,07,01,11,42,27.60
2013,07,01,11,43,27.60
2013,07,01,11,44,27.50
2013,07,01,11,45,27.50
2013,07,01,11,46,27.50
2013,07,01,11,47,27.50
2013,07,01,11,48,27.60
2013,07,01,11,49,27.60
2013,07,01,11,50,27.50
2013,07,01,11,51,27.40
2013,07,01,11,52,27.40
2013,07,01,11,53,27.30
2013,07,01,11,54,27.40
2013,07,01,11,55,27.40
2013,07,01,11,56,27.40
2013,07,01,11,57,27.40
2013,07,01,11,58,27.40
2013,07,01,11,59,27.30
2013,07,01,12,00,27.30
2013,07,01,12,01,27.30
2013,07,01,12,02,27.30
2013,07,01,12,03,27.20
2013,07,01,12,04,27.20
2013,07,01,12,05,27.20
2013,07,01,12,06,27.30
2013,07,01,12,07,27.30
2013,07,01,12,08,27.30
2013,07,01,12,09,27.40
2013,07,01,12,10,27.40
2013,07,01,12,11,27.40
2013,07,01,12,12,27.40
2013,07,01,12,13,27.50
2013,07,01,12,14,27.50
2013,07,01,12,15,27.70
2013,07,01,12,16,27.80
2013,07,01,12,17,27.90
2013,07,01,12,18,27.80
2013,07,01,12,19,27.70
2013,07,01,12,20,27.60
2013,07,01,12,21,27.60
2013,07,01,12,22,27.60
2013,07,01,12,23,27.60
2013,07,01,12,24,27.60
2013,07,01,12,25,27.60
2013,07,01,12,26,27.70
2013,07,01,12,27,27.80
2013,07,01,12,28,27.90
2013,07,01,12,29,27.90
2013,07,01,12,30,28.00
2013,07,01,12,31,28.00
2013,07,01,12,32,28.00
2013,07,01,12,33,27.90
2013,07,01,12,34,27.80
2013,07,01,12,35,27.80
2013,07,01,12,36,27.90
2013,07,01,12,37,28.00
2013,07,01,12,38,28.10
2013,07,01,12,39,28.20
2013,07,01,12,40,28.30
2013,07,01,12,41,28.30
2013,07,01,12,42,28.30
2013,07,01,12,43,28.30
2013,07,01,12,44,28.30
2013,07,01,12,45,28.30
2013,07,01,12,46,28.30
2013,07,01,12,47,28.20
2013,07,01,12,48,28.20
2013,07,01,12,49,28.30
2013,07,01,12,50,28.40
2013,07,01,12,51,28.50
2013,07,01,12,52,28.60
2013,07,01,12,53,28.70
2013,07,01,12,54,28.70
2013,07,01,12,55,28.70
2013,07,01,12,56,28.60
2013,07,01,12,57,28.60
2013,07,01,12,58,28.60
2013,07,01,12,59,28.60
2013,07,01,13,00,28.60
2013,07,01,13,01,28.70
2013,07,01,13,02,28.60
2013,07,01,13,03,28.50
2013,07,01,13,04,28.30
2013,07,01,13,05,28.30
2013,07,01,13,06,28.20
2013,07,01,13,07,28.20
2013,07,01,13,08,28.20
2013,07,01,13,09,28.20
2013,07,01,13,10,28.30
2013,07,01,13,11,28.20
2013,07,01,13,12,28.30
2013,07,01,13,13,28.30
2013,07,01,13,14,28.30
2013,07,01,13,15,28.30
2013,07,01,13,16,28.30
2013,07,01,13,17,28.40
2013,07,01,13,18,28.50
2013,07,01,13,19,28.60
2013,07,01,13,20,28.70
2013,07,01,13,21,28.70
2013,07,01,13,22,28.70
2013,07,01,13,23,28.90
2013,07,01,13,24,28.90
2013,07,01,13,25,29.00
2013,07,01,13,26,29.10
2013,07,01,13,27,29.10
2013,07,01,13,28,29.20
2013,07,01,13,29,29.20
2013,07,01,13,30,29.20
2013,07,01,13,31,29.10
2013,07,01,13,32,29.10
2013,07,01,13,33,29.00
2013,07,01,13,34,29.00
2013,07,01,13,35,29.00
2013,07,01,13,36,28.90
2013,07,01,13,37,29.00
2013,07,01,13,38,29.10
2013,07,01,13,39,29.20
2013,07,01,13,40,29.30
2013,07,01,13,41,29.30
2013,07,01,13,42,29.40
2013,07,01,13,43,29.50
2013,07,01,13,44,29.60
2013,07,01,13,45,29.70
2013,07,01,13,46,29.80
2013,07,01,13,47,29.80
2013,07,01,13,48,29.80
2013,07,01,13,49,29.80
2013,07,01,13,50,29.80
2013,07,01,13,51,29.80
2013,07,01,13,52,29.90
2013,07,01,13,53,29.90
2013,07,01,13,54,29.90
2013,07,01,13,55,30.00
2013,07,01,13,56,29.90
2013,07,01,13,57,29.80
2013,07,01,13,58,29.70
2013,07,01,13,59,29.70
2013,07,01,14,00,29.60
2013,07,01,14,01,29.60
2013,07,01,14,02,29.70
2013,07,01,14,03,29.70
2013,07,01,14,04,29.70
2013,07,01,14,05,29.70
2013,07,01,14,06,29.70
2013,07,01,14,07,29.80
2013,07,01,14,08,29.70
2013,07,01,14,09,29.60
2013,07,01,14,10,29.50
2013,07,01,14,11,29.60
2013,07,01,14,12,29.60
2013,07,01,14,13,29.60
2013,07,01,14,14,29.60
2013,07,01,14,15,29.60
2013,07,01,14,16,29.50
2013,07,01,14,17,29.50
2013,07,01,14,18,29.40
2013,07,01,14,19,29.30
2013,07,01,14,20,29.40
2013,07,01,14,21,29.50
2013,07,01,14,22,29.50
2013,07,01,14,23,29.50
2013,07,01,14,24,29.50
2013,07,01,14,25,29.60
2013,07,01,14,26,29.60
2013,07,01,14,27,29.60
2013,07,01,14,28,29.60
2013,07,01,14,29,29.60
2013,07,01,14,30,29.60
2013,07,01,14,31,29.60
2013,07,01,14,32,29.70
2013,07,01,14,33,29.80
2013,07,01,14,34,29.80
2013,07,01,14,35,29.90
2013,07,01,14,36,29.90
2013,07,01,14,37,29.90
2013,07,01,14,38,29.80
2013,07,01,14,39,29.70
2013,07,01,14,40,29.80
2013,07,01,14,41,29.80
2013,07,01,14,42,29.90
2013,07,01,14,43,30.00
2013,07,01,14,44,30.10
2013,07,01,14,45,30.20
2013,07,01,14,46,30.10
2013,07,01,14,47,30.10
2013,07,01,14,48,30.20
2013,07,01,14,49,30.30
2013,07,01,14,50,30.40
2013,07,01,14,51,30.50
2013,07,01,14,52,30.50
2013,07,01,14,53,30.60
2013,07,01,14,54,30.70
2013,07,01,14,55,30.80
2013,07,01,14,56,30.90
2013,07,01,14,57,31.10
2013,07,01,14,58,31.10
2013,07,01,14,59,31.30
2013,07,01,15,00,31.30
2013,07,01,15,01,31.40
2013,07,01,15,02,31.30
2013,07,01,15,03,31.40
2013,07,01,15,04,31.50
2013,07,01,15,05,31.60
2013,07,01,15,06,31.70
2013,07,01,15,07,31.90
2013,07,01,15,08,32.00
2013,07,01,15,09,32.10
2013,07,01,15,10,32.20
2013,07,01,15,11,32.30
2013,07,01,15,12,32.30
2013,07,01,15,13,32.40
2013,07,01,15,14,32.30
2013,07,01,15,15,32.30
2013,07,01,15,16,32.30
2013,07,01,15,17,32.20
2013,07,01,15,18,32.20
2013,07,01,15,19,32.20
2013,07,01,15,20,32.20
2013,07,01,15,21,32.10
2013,07,01,15,22,32.10
2013,07,01,15,23,31.90
2013,07,01,15,24,31.80
2013,07,01,15,25,31.70
2013,07,01,15,26,31.70
2013,07,01,15,27,31.70
2013,07,01,15,28,31.70
2013,07,01,15,29,31.70
2013,07,01,15,30,31.70
2013,07,01,15,31,31.60
2013,07,01,15,32,31.40
2013,07,01,15,33,31.30
2013,07,01,15,34,31.30
2013,07,01,15,35,31.10
2013,07,01,15,36,31.00
2013,07,01,15,37,30.90
2013,07,01,15,38,30.90
2013,07,01,15,39,31.00
2013,07,01,15,40,31.10
2013,07,01,15,41,31.10
2013,07,01,15,42,31.20
2013,07,01,15,43,31.20
2013,07,01,15,44,31.30
2013,07,01,15,45,31.30
2013,07,01,15,46,31.30
2013,07,01,15,47,31.30
2013,07,01,15,48,31.30
2013,07,01,15,49,31.30
2013,07,01,15,50,31.30
2013,07,01,15,51,31.30
2013,07,01,15,52,31.30
2013,07,01,15,53,31.30
2013,07,01,15,54,31.30
2013,07,01,15,55,31.30
2013,07,01,15,56,31.40
2013,07,01,15,57,31.50
2013,07,01,15,58,31.50
2013,07,01,15,59,31.40
2013,07,01,16,00,31.50
2013,07,01,16,01,31.50
2013,07,01,16,02,31.50
2013,07,01,16,03,31.40
2013,07,01,16,04,31.40
2013,07,01,16,05,31.40
2013,07,01,16,06,31.40
2013,07,01,16,07,31.40
2013,07,01,16,08,31.40
2013,07,01,16,09,31.40
2013,07,01,16,10,31.40
2013,07,01,16,11,31.30
2013,07,01,16,12,31.30
2013,07,01,16,13,31.30
2013,07,01,16,14,31.30
2013,07,01,16,15,31.20
2013,07,01,16,16,31.00
2013,07,01,16,17,31.00
2013,07,01,16,18,30.90
2013,07,01,16,19,31.00
2013,07,01,16,20,31.00
2013,07,01,16,21,31.00
2013,07,01,16,22,30.90
2013,07,01,16,23,30.80
2013,07,01,16,24,30.80
2013,07,01,16,25,30.90
2013,07,01,16,26,30.90
2013,07,01,16,27,31.00
2013,07,01,16,28,31.10
2013,07,01,16,29,31.00
2013,07,01,16,30,30.90
2013,07,01,16,31,30.70
2013,07,01,16,32,30.60
2013,07,01,16,33,30.60
2013,07,01,16,34,30.40
2013,07,01,16,35,30.40
2013,07,01,16,36,30.40
2013,07,01,16,37,30.30
2013,07,01,16,38,30.20
2013,07,01,16,39,30.20
2013,07,01,16,40,30.10
2013,07,01,16,41,30.00
2013,07,01,16,42,29.90
2013,07,01,16,43,29.90
2013,07,01,16,44,29.70
2013,07,01,16,45,29.60
2013,07,01,16,46,29.50
2013,07,01,16,47,29.40
2013,07,01,16,48,29.40
2013,07,01,16,49,29.40
2013,07,01,16,50,29.40
2013,07,01,16,51,29.50
2013,07,01,16,52,29.50
2013,07,01,16,53,29.60
2013,07,01,16,54,29.70
2013,07,01,16,55,29.80
2013,07,01,16,56,29.80
2013,07,01,16,57,29.90
2013,07,01,16,58,30.00
2013,07,01,16,59,30.10
2013,07,01,17,00,30.20
2013,07,01,17,01,30.30
2013,07,01,17,02,30.40
2013,07,01,17,03,30.40
2013,07,01,17,04,30.40
2013,07,01,17,05,30.40
2013,07,01,17,06,30.50
2013,07,01,17,07,30.60
2013,07,01,17,08,30.70
2013,07,01,17,09,30.80
2013,07,01,17,10,30.90
2013,07,01,17,11,31.00
2013,07,01,17,12,31.10
2013,07,01,17,13,31.10
2013,07,01,17,14,31.20
2013,07,01,17,15,31.20
2013,07,01,17,16,31.20
2013,07,01,17,17,31.10
2013,07,01,17,18,31.00
2013,07,01,17,19,30.90